Wetterdaten: Donnerstag, 07.04.2016
Datum Zeit Auen-Temp. Temp gefhlt Luftfeuchte Luftdruck Regen Wind Richtung Richtung Sonnenschein Taupunkt Windben
07.04.2016 00:00 4,0 C 3,6 C 85 % 1012,6 hPa 0,0 mm 0,0 km/h (0 Bft) SO 135 0 min 1,7 C 0,0 km/h (0 Bft)
07.04.2016 00:05 4,4 C 3,9 C 86 % 1012,6 hPa 0,0 mm 0,0 km/h (0 Bft) O 90 0 min 2,3 C 0,0 km/h (0 Bft)
07.04.2016 00:10 4,2 C 3,8 C 86 % 1012,6 hPa 0,0 mm 0,0 km/h (0 Bft) NO 45 0 min 2,1 C 0,0 km/h (0 Bft)
07.04.2016 00:15 4,4 C 4,0 C 87 % 1012,6 hPa 0,0 mm 0,6 km/h (0 Bft) O-NO 67 0 min 2,4 C 3,6 km/h (1 Bft)
07.04.2016 00:20 4,5 C 4,1 C 88 % 1012,6 hPa 0,0 mm 2,1 km/h (1 Bft) SO 135 0 min 2,7 C 6,0 km/h (2 Bft)
07.04.2016 00:25 4,3 C 4,1 C 88 % 1012,6 hPa 0,0 mm 3,0 km/h (1 Bft) O-NO 67 0 min 2,5 C 8,6 km/h (2 Bft)
07.04.2016 00:30 4,3 C 4,1 C 88 % 1012,6 hPa 0,0 mm 1,8 km/h (1 Bft) NW 315 0 min 2,5 C 0,0 km/h (0 Bft)
07.04.2016 00:35 4,0 C 3,8 C 88 % 1012,6 hPa 0,0 mm 0,0 km/h (0 Bft) O-NO 67 0 min 2,2 C 0,0 km/h (0 Bft)
07.04.2016 00:40 4,2 C 3,9 C 88 % 1012,6 hPa 0,0 mm 0,3 km/h (0 Bft) NW 315 0 min 2,4 C 4,5 km/h (1 Bft)
07.04.2016 00:43 4,2 C 3,9 C 88 % 1012,6 hPa 0,0 mm 0,3 km/h (0 Bft) NW 315 0 min 2,4 C 4,5 km/h (1 Bft)
07.04.2016 00:45 4,0 C 3,8 C 88 % 1012,6 hPa 0,0 mm 0,3 km/h (0 Bft) N-NO 22 0 min 2,2 C 0,0 km/h (0 Bft)
07.04.2016 00:50 3,8 C 3,6 C 88 % 1012,4 hPa 0,0 mm 0,3 km/h (0 Bft) O-SO 112 0 min 2,0 C 0,0 km/h (0 Bft)
07.04.2016 00:55 4,0 C 3,7 C 88 % 1012,4 hPa 0,0 mm 0,0 km/h (0 Bft) O-NO 67 0 min 2,2 C 0,0 km/h (0 Bft)
07.04.2016 01:00 3,9 C 3,7 C 88 % 1012,4 hPa 0,0 mm 0,0 km/h (0 Bft) O-NO 67 0 min 2,1 C 0,0 km/h (0 Bft)
07.04.2016 01:05 4,1 C 3,9 C 88 % 1012,4 hPa 0,0 mm 0,0 km/h (0 Bft) W-NW 292 0 min 2,3 C 0,0 km/h (0 Bft)
07.04.2016 01:10 4,1 C 3,9 C 88 % 1012,4 hPa 0,0 mm 0,0 km/h (0 Bft) SO 135 0 min 2,3 C 0,0 km/h (0 Bft)
07.04.2016 01:15 4,3 C 4,1 C 88 % 1012,4 hPa 0,0 mm 0,0 km/h (0 Bft) NW 315 0 min 2,5 C 0,0 km/h (0 Bft)
07.04.2016 01:20 4,2 C 4,0 C 88 % 1012,4 hPa 0,0 mm 0,0 km/h (0 Bft) NO 45 0 min 2,4 C 0,0 km/h (0 Bft)
07.04.2016 01:25 4,5 C 4,3 C 84 % 1012,4 hPa 0,0 mm 0,0 km/h (0 Bft) W-NW 292 0 min 2,0 C 0,0 km/h (0 Bft)
07.04.2016 01:30 4,6 C 4,3 C 89 % 1012,2 hPa 0,0 mm 0,0 km/h (0 Bft) O-NO 67 0 min 2,9 C 0,0 km/h (0 Bft)
07.04.2016 01:35 4,5 C 4,2 C 89 % 1012,2 hPa 0,0 mm 0,9 km/h (0 Bft) S-SO 157 0 min 2,8 C 3,9 km/h (1 Bft)
07.04.2016 01:40 4,9 C 4,7 C 84 % 1012,2 hPa 0,0 mm 1,5 km/h (1 Bft) O 90 0 min 2,4 C 0,0 km/h (0 Bft)
07.04.2016 01:45 4,4 C 4,3 C 89 % 1012,2 hPa 0,0 mm 0,9 km/h (0 Bft) N-NW 337 0 min 2,7 C 0,0 km/h (0 Bft)
07.04.2016 01:50 4,0 C 3,9 C 89 % 1012,1 hPa 0,0 mm 0,3 km/h (0 Bft) W 270 0 min 2,4 C 0,0 km/h (0 Bft)
07.04.2016 01:55 4,3 C 4,1 C 90 % 1012,1 hPa 0,0 mm 1,5 km/h (1 Bft) NO 45 0 min 2,8 C 3,3 km/h (1 Bft)
07.04.2016 02:00 4,4 C 4,2 C 90 % 1012,1 hPa 0,0 mm 2,1 km/h (1 Bft) S-SO 157 0 min 2,9 C 0,0 km/h (0 Bft)
07.04.2016 02:05 4,4 C 4,2 C 90 % 1012,1 hPa 0,0 mm 0,9 km/h (0 Bft) O-NO 67 0 min 2,9 C 3,6 km/h (1 Bft)
07.04.2016 02:10 4,5 C 4,4 C 84 % 1012,0 hPa 0,0 mm 0,3 km/h (0 Bft) NW 315 0 min 2,0 C 0,0 km/h (0 Bft)
07.04.2016 02:15 4,7 C 4,5 C 90 % 1012,0 hPa 0,0 mm 0,3 km/h (0 Bft) W-SW 247 0 min 3,2 C 0,0 km/h (0 Bft)
07.04.2016 02:20 4,7 C 4,6 C 85 % 1012,0 hPa 0,0 mm 0,0 km/h (0 Bft) NW 315 0 min 2,4 C 0,0 km/h (0 Bft)
07.04.2016 02:25 4,9 C 4,9 C 85 % 1012,0 hPa 0,0 mm 0,0 km/h (0 Bft) W-SW 247 0 min 2,6 C 0,0 km/h (0 Bft)
07.04.2016 02:30 5,0 C 4,9 C 85 % 1011,8 hPa 0,0 mm 0,0 km/h (0 Bft) SO 135 0 min 2,7 C 0,0 km/h (0 Bft)
07.04.2016 02:35 5,1 C 5,0 C 85 % 1011,8 hPa 0,0 mm 0,0 km/h (0 Bft) NW 315 0 min 2,8 C 0,0 km/h (0 Bft)
07.04.2016 02:40 5,0 C 4,9 C 90 % 1011,8 hPa 0,0 mm 0,6 km/h (0 Bft) S 180 0 min 3,5 C 0,0 km/h (0 Bft)
07.04.2016 02:45 5,0 C 5,0 C 85 % 1011,8 hPa 0,0 mm 0,6 km/h (0 Bft) S 180 0 min 2,7 C 0,0 km/h (0 Bft)
07.04.2016 02:50 5,1 C 5,0 C 90 % 1011,8 hPa 0,0 mm 0,0 km/h (0 Bft) NW 315 0 min 3,6 C 0,0 km/h (0 Bft)
07.04.2016 02:55 5,2 C 5,3 C 85 % 1011,8 hPa 0,0 mm 0,9 km/h (0 Bft) W 270 0 min 2,9 C 14,9 km/h (3 Bft)
07.04.2016 03:00 5,4 C 5,5 C 85 % 1011,8 hPa 0,0 mm 3,3 km/h (1 Bft) SW 225 0 min 3,1 C 7,2 km/h (2 Bft)
07.04.2016 03:05 6,0 C 5,9 C 84 % 1011,8 hPa 0,0 mm 7,7 km/h (2 Bft) N-NO 22 0 min 3,5 C 16,1 km/h (3 Bft)
07.04.2016 03:10 7,1 C 6,5 C 89 % 1011,6 hPa 0,0 mm 8,0 km/h (2 Bft) W-SW 247 0 min 5,4 C 10,4 km/h (2 Bft)
07.04.2016 03:15 7,1 C 6,8 C 88 % 1011,6 hPa 0,0 mm 6,0 km/h (2 Bft) W 270 0 min 5,2 C 5,1 km/h (1 Bft)
07.04.2016 03:20 7,2 C 7,0 C 88 % 1011,6 hPa 0,0 mm 5,4 km/h (1 Bft) W 270 0 min 5,3 C 8,9 km/h (2 Bft)
07.04.2016 03:25 7,3 C 7,1 C 87 % 1011,6 hPa 0,0 mm 6,0 km/h (2 Bft) SW 225 0 min 5,3 C 9,2 km/h (2 Bft)
07.04.2016 03:30 7,3 C 7,2 C 86 % 1011,5 hPa 0,0 mm 5,4 km/h (1 Bft) S-SW 202 0 min 5,1 C 6,3 km/h (2 Bft)
07.04.2016 03:35 7,3 C 7,2 C 85 % 1011,5 hPa 0,0 mm 4,2 km/h (1 Bft) S 180 0 min 4,9 C 6,0 km/h (2 Bft)
07.04.2016 03:40 7,4 C 7,3 C 84 % 1011,5 hPa 0,0 mm 4,2 km/h (1 Bft) S 180 0 min 4,9 C 0,0 km/h (0 Bft)
07.04.2016 03:43 7,4 C 7,3 C 83 % 1011,5 hPa 0,0 mm 4,8 km/h (1 Bft) SO 135 0 min 4,7 C 6,0 km/h (2 Bft)
07.04.2016 03:45 7,4 C 7,3 C 83 % 1011,5 hPa 0,0 mm 4,8 km/h (1 Bft) SO 135 0 min 4,7 C 6,0 km/h (2 Bft)
07.04.2016 03:50 7,3 C 7,3 C 82 % 1011,4 hPa 0,0 mm 4,5 km/h (1 Bft) N-NW 337 0 min 4,4 C 12,8 km/h (3 Bft)
07.04.2016 03:55 7,4 C 7,4 C 81 % 1011,4 hPa 0,0 mm 4,8 km/h (1 Bft) W 270 0 min 4,4 C 3,3 km/h (1 Bft)
07.04.2016 04:00 7,4 C 7,4 C 81 % 1011,4 hPa 0,0 mm 4,8 km/h (1 Bft) S 180 0 min 4,4 C 8,0 km/h (2 Bft)
07.04.2016 04:05 7,4 C 7,4 C 80 % 1011,4 hPa 0,0 mm 3,9 km/h (1 Bft) N-NW 337 0 min 4,2 C 3,3 km/h (1 Bft)
07.04.2016 04:10 7,5 C 7,5 C 80 % 1011,3 hPa 0,0 mm 5,4 km/h (1 Bft) S 180 0 min 4,3 C 9,8 km/h (2 Bft)
07.04.2016 04:15 7,5 C 7,5 C 79 % 1011,3 hPa 0,0 mm 5,4 km/h (1 Bft) W-SW 247 0 min 4,1 C 3,9 km/h (1 Bft)
07.04.2016 04:20 7,4 C 7,4 C 79 % 1011,3 hPa 0,0 mm 4,8 km/h (1 Bft) SW 225 0 min 4,0 C 7,2 km/h (2 Bft)
07.04.2016 04:25 7,4 C 7,4 C 78 % 1011,3 hPa 0,0 mm 3,9 km/h (1 Bft) S-SW 202 0 min 3,8 C 3,0 km/h (1 Bft)
07.04.2016 04:30 7,4 C 7,4 C 78 % 1011,2 hPa 0,0 mm 3,9 km/h (1 Bft) SW 225 0 min 3,8 C 3,6 km/h (1 Bft)
07.04.2016 04:35 7,5 C 7,5 C 77 % 1011,2 hPa 0,0 mm 4,8 km/h (1 Bft) S-SW 202 0 min 3,7 C 7,2 km/h (2 Bft)
07.04.2016 04:40 7,5 C 7,5 C 77 % 1011,2 hPa 0,0 mm 5,4 km/h (1 Bft) O-SO 112 0 min 3,7 C 0,0 km/h (0 Bft)
07.04.2016 04:45 7,4 C 7,4 C 77 % 1011,2 hPa 0,0 mm 3,3 km/h (1 Bft) SW 225 0 min 3,6 C 3,0 km/h (1 Bft)
07.04.2016 04:50 7,4 C 7,4 C 77 % 1011,2 hPa 0,0 mm 3,0 km/h (1 Bft) SW 225 0 min 3,6 C 3,3 km/h (1 Bft)
07.04.2016 04:55 7,4 C 7,4 C 77 % 1011,2 hPa 0,0 mm 3,6 km/h (1 Bft) S 180 0 min 3,6 C 8,3 km/h (2 Bft)
07.04.2016 05:00 7,4 C 7,4 C 77 % 1011,2 hPa 0,0 mm 3,9 km/h (1 Bft) W-SW 247 0 min 3,6 C 7,2 km/h (2 Bft)
07.04.2016 05:05 7,4 C 7,4 C 76 % 1011,2 hPa 0,0 mm 6,0 km/h (2 Bft) S-SO 157 0 min 3,5 C 10,1 km/h (2 Bft)
07.04.2016 05:10 7,4 C 7,4 C 76 % 1011,1 hPa 0,0 mm 6,3 km/h (2 Bft) S 180 0 min 3,5 C 4,8 km/h (1 Bft)
07.04.2016 05:15 7,4 C 7,4 C 76 % 1011,1 hPa 0,0 mm 4,8 km/h (1 Bft) S 180 0 min 3,5 C 4,8 km/h (1 Bft)
07.04.2016 05:20 7,4 C 7,4 C 76 % 1011,1 hPa 0,0 mm 3,6 km/h (1 Bft) W-SW 247 0 min 3,5 C 3,6 km/h (1 Bft)
07.04.2016 05:25 7,3 C 7,3 C 76 % 1011,1 hPa 0,0 mm 3,0 km/h (1 Bft) SW 225 0 min 3,4 C 5,7 km/h (1 Bft)
07.04.2016 05:30 7,3 C 7,3 C 76 % 1011,1 hPa 0,0 mm 2,7 km/h (1 Bft) S-SO 157 0 min 3,4 C 4,5 km/h (1 Bft)
07.04.2016 05:35 7,2 C 7,2 C 76 % 1011,1 hPa 0,0 mm 2,1 km/h (1 Bft) S-SW 202 0 min 3,3 C 5,4 km/h (1 Bft)
07.04.2016 05:40 7,2 C 7,2 C 76 % 1011,1 hPa 0,0 mm 2,1 km/h (1 Bft) S 180 0 min 3,3 C 4,2 km/h (1 Bft)
07.04.2016 05:45 7,2 C 7,2 C 76 % 1011,1 hPa 0,0 mm 2,7 km/h (1 Bft) W-SW 247 0 min 3,3 C 3,3 km/h (1 Bft)
07.04.2016 05:50 7,1 C 7,1 C 76 % 1011,2 hPa 0,0 mm 1,8 km/h (1 Bft) W-SW 247 0 min 3,2 C 0,0 km/h (0 Bft)
07.04.2016 05:55 7,1 C 7,1 C 76 % 1011,2 hPa 0,0 mm 1,2 km/h (1 Bft) W 270 0 min 3,2 C 4,8 km/h (1 Bft)
07.04.2016 06:00 7,2 C 7,1 C 76 % 1011,2 hPa 0,0 mm 0,9 km/h (0 Bft) S 180 0 min 3,3 C 0,0 km/h (0 Bft)
07.04.2016 06:05 7,2 C 7,1 C 76 % 1011,2 hPa 0,0 mm 0,9 km/h (0 Bft) W-NW 292 0 min 3,3 C 4,5 km/h (1 Bft)
07.04.2016 06:10 7,1 C 7,1 C 76 % 1010,7 hPa 0,0 mm 0,9 km/h (0 Bft) SW 225 0 min 3,2 C 0,0 km/h (0 Bft)
07.04.2016 06:15 7,2 C 7,1 C 75 % 1010,7 hPa 0,0 mm 3,3 km/h (1 Bft) W-SW 247 0 min 3,1 C 8,0 km/h (2 Bft)
07.04.2016 06:20 7,2 C 7,1 C 75 % 1010,7 hPa 0,0 mm 3,0 km/h (1 Bft) W-SW 247 0 min 3,1 C 3,0 km/h (1 Bft)
07.04.2016 06:25 7,1 C 7,1 C 75 % 1010,7 hPa 0,0 mm 2,4 km/h (1 Bft) S-SW 202 0 min 3,0 C 0,0 km/h (0 Bft)
07.04.2016 06:30 7,1 C 7,1 C 75 % 1011,1 hPa 0,0 mm 2,4 km/h (1 Bft) S-SW 202 0 min 3,0 C 0,0 km/h (0 Bft)
07.04.2016 06:35 7,1 C 7,1 C 75 % 1011,1 hPa 0,0 mm 2,4 km/h (1 Bft) S-SW 202 0 min 3,0 C 6,9 km/h (2 Bft)
07.04.2016 06:40 7,1 C 7,1 C 75 % 1011,1 hPa 0,0 mm 3,3 km/h (1 Bft) SW 225 0 min 3,0 C 8,3 km/h (2 Bft)
07.04.2016 06:43 7,1 C 7,1 C 75 % 1011,1 hPa 0,0 mm 5,7 km/h (1 Bft) S 180 0 min 3,0 C 5,1 km/h (1 Bft)
07.04.2016 06:44 7,1 C 7,1 C 75 % 1011,1 hPa 0,0 mm 5,7 km/h (1 Bft) S 180 0 min 3,0 C 5,1 km/h (1 Bft)
07.04.2016 06:45 7,1 C 7,1 C 75 % 1011,1 hPa 0,0 mm 5,7 km/h (1 Bft) S 180 0 min 3,0 C 5,1 km/h (1 Bft)
07.04.2016 06:50 7,1 C 7,1 C 75 % 1011,1 hPa 0,0 mm 5,7 km/h (1 Bft) S-SW 202 0 min 3,0 C 6,9 km/h (2 Bft)
07.04.2016 06:55 7,1 C 7,1 C 75 % 1011,1 hPa 0,0 mm 3,6 km/h (1 Bft) SW 225 0 min 3,0 C 6,3 km/h (2 Bft)
07.04.2016 07:00 7,1 C 7,1 C 75 % 1011,1 hPa 0,0 mm 3,6 km/h (1 Bft) S-SW 202 0 min 3,0 C 0,0 km/h (0 Bft)
07.04.2016 07:05 7,0 C 7,0 C 76 % 1011,1 hPa 0,0 mm 2,1 km/h (1 Bft) SO 135 0 min 3,1 C 0,0 km/h (0 Bft)
07.04.2016 07:10 7,0 C 7,0 C 76 % 1011,3 hPa 0,0 mm 0,9 km/h (0 Bft) S 180 0 min 3,1 C 3,0 km/h (1 Bft)
07.04.2016 07:15 7,0 C 7,0 C 76 % 1011,3 hPa 0,0 mm 1,8 km/h (1 Bft) S-SO 157 0 min 3,1 C 0,0 km/h (0 Bft)
07.04.2016 07:20 7,0 C 7,0 C 76 % 1011,3 hPa 0,0 mm 1,5 km/h (1 Bft) W-NW 292 0 min 3,1 C 3,6 km/h (1 Bft)
07.04.2016 07:25 6,9 C 6,9 C 77 % 1011,3 hPa 0,0 mm 0,3 km/h (0 Bft) O-NO 67 0 min 3,2 C 0,0 km/h (0 Bft)
07.04.2016 07:30 6,9 C 6,9 C 77 % 1011,4 hPa 0,0 mm 0,3 km/h (0 Bft) W-SW 247 0 min 3,2 C 4,8 km/h (1 Bft)
07.04.2016 07:35 7,0 C 7,0 C 77 % 1011,4 hPa 0,0 mm 1,8 km/h (1 Bft) S 180 0 min 3,2 C 4,2 km/h (1 Bft)
07.04.2016 07:40 7,1 C 7,1 C 77 % 1011,4 hPa 0,0 mm 2,7 km/h (1 Bft) O 90 0 min 3,3 C 3,0 km/h (1 Bft)
07.04.2016 07:45 7,0 C 7,0 C 77 % 1011,4 hPa 0,0 mm 2,7 km/h (1 Bft) S 180 0 min 3,2 C 5,1 km/h (1 Bft)
07.04.2016 07:50 7,1 C 7,1 C 77 % 1011,6 hPa 0,0 mm 2,4 km/h (1 Bft) O 90 0 min 3,3 C 0,0 km/h (0 Bft)
07.04.2016 07:55 7,2 C 7,2 C 76 % 1011,6 hPa 0,0 mm 3,9 km/h (1 Bft) S-SW 202 0 min 3,3 C 8,3 km/h (2 Bft)
07.04.2016 08:00 7,3 C 7,3 C 76 % 1011,6 hPa 0,0 mm 4,2 km/h (1 Bft) S 180 0 min 3,4 C 0,0 km/h (0 Bft)
07.04.2016 08:05 7,3 C 7,3 C 75 % 1011,6 hPa 0,0 mm 4,5 km/h (1 Bft) S-SO 157 0 min 3,2 C 7,5 km/h (2 Bft)
07.04.2016 08:10 7,3 C 7,3 C 75 % 1011,8 hPa 0,0 mm 3,6 km/h (1 Bft) W-SW 247 0 min 3,2 C 0,0 km/h (0 Bft)
07.04.2016 08:15 7,3 C 7,4 C 75 % 1011,8 hPa 0,0 mm 2,1 km/h (1 Bft) W 270 0 min 3,2 C 0,0 km/h (0 Bft)
07.04.2016 08:20 7,3 C 7,4 C 75 % 1011,8 hPa 0,0 mm 0,6 km/h (0 Bft) SO 135 0 min 3,2 C 5,7 km/h (1 Bft)
07.04.2016 08:25 7,3 C 7,4 C 75 % 1011,8 hPa 0,0 mm 1,5 km/h (1 Bft) W 270 0 min 3,2 C 0,0 km/h (0 Bft)
07.04.2016 08:30 7,3 C 7,4 C 75 % 1011,8 hPa 0,0 mm 1,8 km/h (1 Bft) W-NW 292 0 min 3,2 C 3,6 km/h (1 Bft)
07.04.2016 08:35 7,3 C 7,4 C 74 % 1011,8 hPa 0,0 mm 0,9 km/h (0 Bft) W-SW 247 0 min 3,0 C 0,0 km/h (0 Bft)
07.04.2016 08:40 7,3 C 7,4 C 74 % 1011,8 hPa 0,0 mm 0,6 km/h (0 Bft) S-SO 157 0 min 3,0 C 0,0 km/h (0 Bft)
07.04.2016 08:45 7,3 C 7,5 C 74 % 1011,8 hPa 0,0 mm 0,6 km/h (0 Bft) W-SW 247 0 min 3,0 C 0,0 km/h (0 Bft)
07.04.2016 08:50 7,3 C 7,5 C 74 % 1011,9 hPa 0,0 mm 0,6 km/h (0 Bft) W 270 0 min 3,0 C 3,9 km/h (1 Bft)
07.04.2016 08:55 7,3 C 7,4 C 75 % 1011,9 hPa 0,0 mm 0,6 km/h (0 Bft) W-NW 292 0 min 3,2 C 0,0 km/h (0 Bft)
07.04.2016 09:00 7,3 C 7,4 C 75 % 1011,9 hPa 0,0 mm 2,1 km/h (1 Bft) W 270 0 min 3,2 C 0,0 km/h (0 Bft)
07.04.2016 09:05 7,3 C 7,4 C 75 % 1011,9 hPa 0,0 mm 3,0 km/h (1 Bft) W 270 0 min 3,2 C 5,7 km/h (1 Bft)
07.04.2016 09:10 7,3 C 7,4 C 74 % 1011,9 hPa 0,0 mm 3,0 km/h (1 Bft) NW 315 0 min 3,0 C 0,0 km/h (0 Bft)
07.04.2016 09:15 7,3 C 7,4 C 75 % 1011,9 hPa 0,0 mm 5,1 km/h (1 Bft) W-NW 292 0 min 3,2 C 6,6 km/h (2 Bft)
07.04.2016 09:20 7,2 C 7,4 C 75 % 1011,9 hPa 0,0 mm 4,8 km/h (1 Bft) SW 225 0 min 3,1 C 8,9 km/h (2 Bft)
07.04.2016 09:25 7,2 C 7,5 C 75 % 1011,9 hPa 0,0 mm 2,7 km/h (1 Bft) W 270 0 min 3,1 C 6,3 km/h (2 Bft)
07.04.2016 09:30 7,3 C 7,6 C 75 % 1011,9 hPa 0,0 mm 2,7 km/h (1 Bft) W-SW 247 0 min 3,2 C 7,7 km/h (2 Bft)
07.04.2016 09:35 7,3 C 7,6 C 75 % 1011,9 hPa 0,0 mm 3,3 km/h (1 Bft) W 270 0 min 3,2 C 4,8 km/h (1 Bft)
07.04.2016 09:40 7,3 C 7,7 C 74 % 1011,9 hPa 0,0 mm 3,3 km/h (1 Bft) S 180 0 min 3,0 C 4,5 km/h (1 Bft)
07.04.2016 09:43 7,3 C 7,8 C 74 % 1011,9 hPa 0,0 mm 2,1 km/h (1 Bft) SW 225 0 min 3,0 C 5,4 km/h (1 Bft)
07.04.2016 09:45 7,3 C 7,8 C 74 % 1011,9 hPa 0,0 mm 2,1 km/h (1 Bft) SW 225 0 min 3,0 C 5,4 km/h (1 Bft)
07.04.2016 09:50 7,3 C 7,8 C 74 % 1012,1 hPa 0,0 mm 1,8 km/h (1 Bft) SW 225 0 min 3,0 C 0,0 km/h (0 Bft)
07.04.2016 09:55 7,3 C 7,9 C 74 % 1012,1 hPa 0,0 mm 2,7 km/h (1 Bft) W 270 0 min 3,0 C 4,5 km/h (1 Bft)
07.04.2016 10:00 7,4 C 7,9 C 74 % 1012,1 hPa 0,0 mm 3,9 km/h (1 Bft) W-SW 247 0 min 3,1 C 6,3 km/h (2 Bft)
07.04.2016 10:05 7,4 C 8,1 C 75 % 1012,1 hPa 0,0 mm 3,0 km/h (1 Bft) SW 225 0 min 3,3 C 3,0 km/h (1 Bft)
07.04.2016 10:10 7,5 C 8,2 C 75 % 1011,9 hPa 0,0 mm 1,5 km/h (1 Bft) W-SW 247 0 min 3,4 C 3,6 km/h (1 Bft)
07.04.2016 10:15 7,6 C 8,4 C 75 % 1011,9 hPa 0,0 mm 1,5 km/h (1 Bft) W 270 0 min 3,5 C 0,0 km/h (0 Bft)
07.04.2016 10:20 7,7 C 8,7 C 75 % 1011,9 hPa 0,0 mm 1,5 km/h (1 Bft) NW 315 0 min 3,6 C 3,0 km/h (1 Bft)
07.04.2016 10:25 7,9 C 9,0 C 75 % 1011,9 hPa 0,0 mm 0,9 km/h (0 Bft) NW 315 0 min 3,7 C 4,5 km/h (1 Bft)
07.04.2016 10:30 8,0 C 9,1 C 74 % 1012,1 hPa 0,0 mm 2,1 km/h (1 Bft) N-NW 337 0 min 3,7 C 5,1 km/h (1 Bft)
07.04.2016 10:35 8,1 C 9,2 C 74 % 1012,1 hPa 0,0 mm 3,0 km/h (1 Bft) W 270 0 min 3,8 C 4,8 km/h (1 Bft)
07.04.2016 10:40 8,1 C 9,3 C 74 % 1012,1 hPa 0,0 mm 2,7 km/h (1 Bft) N-NW 337 0 min 3,8 C 0,0 km/h (0 Bft)
07.04.2016 10:45 8,2 C 9,5 C 74 % 1012,1 hPa 0,0 mm 1,5 km/h (1 Bft) W 270 0 min 3,8 C 0,0 km/h (0 Bft)
07.04.2016 10:50 8,3 C 9,6 C 73 % 1012,2 hPa 0,0 mm 0,9 km/h (0 Bft) W-SW 247 0 min 3,8 C 7,5 km/h (2 Bft)
07.04.2016 10:55 8,4 C 9,7 C 73 % 1012,2 hPa 0,0 mm 1,8 km/h (1 Bft) W 270 0 min 3,8 C 0,0 km/h (0 Bft)
07.04.2016 11:00 8,5 C 9,8 C 73 % 1012,2 hPa 0,0 mm 1,5 km/h (1 Bft) W-NW 292 0 min 3,9 C 0,0 km/h (0 Bft)
07.04.2016 11:05 8,5 C 9,9 C 73 % 1012,2 hPa 0,0 mm 2,4 km/h (1 Bft) NW 315 0 min 3,9 C 5,7 km/h (1 Bft)
07.04.2016 11:10 8,5 C 9,8 C 72 % 1012,2 hPa 0,0 mm 4,8 km/h (1 Bft) W-SW 247 0 min 3,7 C 9,2 km/h (2 Bft)
07.04.2016 11:15 8,5 C 9,8 C 72 % 1012,2 hPa 0,0 mm 5,1 km/h (1 Bft) W 270 0 min 3,7 C 3,3 km/h (1 Bft)
07.04.2016 11:20 8,6 C 9,9 C 72 % 1012,2 hPa 0,0 mm 3,0 km/h (1 Bft) N-NW 337 0 min 3,8 C 0,0 km/h (0 Bft)
07.04.2016 11:25 8,7 C 10,1 C 71 % 1012,2 hPa 0,0 mm 0,6 km/h (0 Bft) NW 315 0 min 3,7 C 0,0 km/h (0 Bft)
07.04.2016 11:30 8,8 C 10,3 C 71 % 1012,3 hPa 0,0 mm 2,4 km/h (1 Bft) W 270 0 min 3,8 C 8,9 km/h (2 Bft)
07.04.2016 11:35 8,8 C 10,3 C 70 % 1012,3 hPa 0,0 mm 4,8 km/h (1 Bft) SW 225 0 min 3,6 C 3,9 km/h (1 Bft)
07.04.2016 11:40 8,9 C 10,5 C 70 % 1012,3 hPa 0,0 mm 5,1 km/h (1 Bft) NW 315 0 min 3,7 C 6,0 km/h (2 Bft)
07.04.2016 11:45 9,0 C 10,5 C 70 % 1012,3 hPa 0,0 mm 5,4 km/h (1 Bft) NW 315 0 min 3,8 C 5,7 km/h (1 Bft)
07.04.2016 11:50 9,0 C 10,4 C 69 % 1012,2 hPa 0,0 mm 7,7 km/h (2 Bft) W 270 0 min 3,6 C 11,0 km/h (2 Bft)
07.04.2016 11:55 9,1 C 10,4 C 69 % 1012,2 hPa 0,0 mm 7,7 km/h (2 Bft) W 270 0 min 3,7 C 14,3 km/h (3 Bft)
07.04.2016 12:00 9,0 C 10,3 C 69 % 1012,2 hPa 0,0 mm 7,5 km/h (2 Bft) W-NW 292 0 min 3,6 C 5,7 km/h (1 Bft)
07.04.2016 12:05 9,1 C 10,3 C 69 % 1012,2 hPa 0,0 mm 7,5 km/h (2 Bft) N-NO 22 0 min 3,7 C 13,4 km/h (3 Bft)
07.04.2016 12:10 9,0 C 10,2 C 68 % 1012,0 hPa 0,0 mm 6,3 km/h (2 Bft) W-NW 292 0 min 3,4 C 0,0 km/h (0 Bft)
07.04.2016 12:15 9,0 C 10,2 C 68 % 1012,0 hPa 0,0 mm 7,7 km/h (2 Bft) W 270 0 min 3,4 C 12,8 km/h (3 Bft)
07.04.2016 12:20 9,0 C 10,3 C 67 % 1012,0 hPa 0,0 mm 6,9 km/h (2 Bft) W-SW 247 0 min 3,2 C 8,3 km/h (2 Bft)
07.04.2016 12:25 9,1 C 10,5 C 68 % 1012,0 hPa 0,0 mm 6,3 km/h (2 Bft) W 270 0 min 3,5 C 8,3 km/h (2 Bft)
07.04.2016 12:30 9,1 C 10,7 C 67 % 1011,9 hPa 0,0 mm 5,4 km/h (1 Bft) W-SW 247 0 min 3,3 C 8,6 km/h (2 Bft)
07.04.2016 12:35 9,2 C 10,9 C 67 % 1011,9 hPa 0,0 mm 5,7 km/h (1 Bft) W 270 0 min 3,4 C 7,5 km/h (2 Bft)
07.04.2016 12:40 9,3 C 11,0 C 67 % 1011,9 hPa 0,0 mm 6,9 km/h (2 Bft) W 270 0 min 3,5 C 10,1 km/h (2 Bft)
07.04.2016 12:43 9,3 C 11,1 C 67 % 1011,9 hPa 0,0 mm 8,6 km/h (2 Bft) W-SW 247 0 min 3,5 C 15,2 km/h (3 Bft)
07.04.2016 12:46 9,3 C 11,1 C 67 % 1011,9 hPa 0,0 mm 8,6 km/h (2 Bft) W-SW 247 0 min 3,5 C 15,2 km/h (3 Bft)
07.04.2016 12:50 9,3 C 10,9 C 66 % 1011,8 hPa 0,0 mm 8,6 km/h (2 Bft) W-SW 247 0 min 3,3 C 7,5 km/h (2 Bft)
07.04.2016 12:55 9,4 C 11,1 C 66 % 1011,8 hPa 0,0 mm 6,0 km/h (2 Bft) W-NW 292 0 min 3,4 C 0,0 km/h (0 Bft)
07.04.2016 13:00 9,4 C 11,0 C 66 % 1011,8 hPa 0,0 mm 6,0 km/h (2 Bft) W-SW 247 0 min 3,4 C 8,0 km/h (2 Bft)
07.04.2016 13:05 9,5 C 11,1 C 66 % 1011,8 hPa 0,0 mm 6,9 km/h (2 Bft) W 270 0 min 3,5 C 11,3 km/h (2 Bft)
07.04.2016 13:10 9,5 C 11,0 C 66 % 1011,9 hPa 0,0 mm 7,2 km/h (2 Bft) W 270 0 min 3,5 C 9,5 km/h (2 Bft)
07.04.2016 13:15 9,6 C 11,0 C 66 % 1011,9 hPa 0,0 mm 7,5 km/h (2 Bft) S-SW 202 0 min 3,6 C 8,9 km/h (2 Bft)
07.04.2016 13:20 9,7 C 11,1 C 66 % 1011,9 hPa 0,0 mm 7,5 km/h (2 Bft) W-SW 247 0 min 3,7 C 16,7 km/h (3 Bft)
07.04.2016 13:25 9,6 C 10,9 C 65 % 1011,9 hPa 0,0 mm 8,6 km/h (2 Bft) W 270 0 min 3,4 C 11,3 km/h (2 Bft)
07.04.2016 13:30 9,5 C 10,8 C 65 % 1011,9 hPa 0,0 mm 8,0 km/h (2 Bft) N-NW 337 0 min 3,3 C 8,3 km/h (2 Bft)
07.04.2016 13:35 9,4 C 10,6 C 65 % 1011,9 hPa 0,0 mm 8,3 km/h (2 Bft) W 270 0 min 3,2 C 11,9 km/h (2 Bft)
07.04.2016 13:40 9,5 C 10,5 C 66 % 1011,9 hPa 0,0 mm 8,0 km/h (2 Bft) W-NW 292 0 min 3,5 C 11,6 km/h (2 Bft)
07.04.2016 13:45 9,5 C 10,7 C 66 % 1011,9 hPa 0,0 mm 6,9 km/h (2 Bft) W 270 0 min 3,5 C 8,3 km/h (2 Bft)
07.04.2016 13:50 9,6 C 10,7 C 66 % 1011,9 hPa 0,0 mm 7,5 km/h (2 Bft) NW 315 0 min 3,6 C 7,5 km/h (2 Bft)
07.04.2016 13:55 9,6 C 10,6 C 66 % 1011,9 hPa 0,0 mm 6,6 km/h (2 Bft) W 270 0 min 3,6 C 10,4 km/h (2 Bft)
07.04.2016 14:00 9,5 C 10,5 C 66 % 1011,9 hPa 0,0 mm 6,3 km/h (2 Bft) NW 315 0 min 3,5 C 4,2 km/h (1 Bft)
07.04.2016 14:05 9,5 C 10,5 C 65 % 1011,9 hPa 0,0 mm 7,2 km/h (2 Bft) NW 315 0 min 3,3 C 11,6 km/h (2 Bft)
07.04.2016 14:10 9,5 C 10,3 C 65 % 1011,8 hPa 0,0 mm 7,5 km/h (2 Bft) W 270 0 min 3,3 C 14,6 km/h (3 Bft)
07.04.2016 14:15 9,4 C 10,1 C 65 % 1011,8 hPa 0,0 mm 8,9 km/h (2 Bft) W-NW 292 0 min 3,2 C 21,2 km/h (4 Bft)
07.04.2016 14:20 9,4 C 9,7 C 65 % 1011,8 hPa 0,0 mm 10,1 km/h (2 Bft) W 270 0 min 3,2 C 14,3 km/h (3 Bft)
07.04.2016 14:25 9,3 C 9,4 C 65 % 1011,8 hPa 0,0 mm 11,3 km/h (2 Bft) W-NW 292 0 min 3,1 C 23,8 km/h (4 Bft)
07.04.2016 14:30 9,2 C 9,4 C 65 % 1011,7 hPa 0,0 mm 11,6 km/h (2 Bft) NW 315 0 min 3,0 C 14,9 km/h (3 Bft)
07.04.2016 14:35 9,2 C 9,3 C 65 % 1011,7 hPa 0,0 mm 10,1 km/h (2 Bft) W-NW 292 0 min 3,0 C 8,3 km/h (2 Bft)
07.04.2016 14:40 9,2 C 9,4 C 65 % 1011,7 hPa 0,0 mm 9,2 km/h (2 Bft) W 270 0 min 3,0 C 8,6 km/h (2 Bft)
07.04.2016 14:45 9,1 C 9,6 C 65 % 1011,7 hPa 0,0 mm 7,2 km/h (2 Bft) W 270 0 min 2,9 C 7,7 km/h (2 Bft)
07.04.2016 14:50 9,1 C 9,6 C 65 % 1011,6 hPa 0,0 mm 6,9 km/h (2 Bft) W 270 0 min 2,9 C 8,3 km/h (2 Bft)
07.04.2016 14:55 9,1 C 9,5 C 65 % 1011,6 hPa 0,0 mm 8,0 km/h (2 Bft) N-NW 337 0 min 2,9 C 14,6 km/h (3 Bft)
07.04.2016 15:00 9,1 C 9,5 C 65 % 1011,6 hPa 0,0 mm 8,0 km/h (2 Bft) SW 225 0 min 2,9 C 10,4 km/h (2 Bft)
07.04.2016 15:05 8,9 C 9,6 C 65 % 1011,6 hPa 0,0 mm 7,5 km/h (2 Bft) W-SW 247 0 min 2,7 C 7,7 km/h (2 Bft)
07.04.2016 15:10 8,9 C 9,6 C 65 % 1011,4 hPa 0,0 mm 6,6 km/h (2 Bft) W 270 0 min 2,7 C 6,3 km/h (2 Bft)
07.04.2016 15:15 8,9 C 9,6 C 65 % 1011,4 hPa 0,0 mm 7,2 km/h (2 Bft) W-SW 247 0 min 2,7 C 5,7 km/h (1 Bft)
07.04.2016 15:20 8,9 C 9,6 C 65 % 1011,4 hPa 0,0 mm 6,6 km/h (2 Bft) NW 315 0 min 2,7 C 3,9 km/h (1 Bft)
07.04.2016 15:25 9,0 C 9,6 C 65 % 1011,4 hPa 0,0 mm 3,9 km/h (1 Bft) SW 225 0 min 2,8 C 3,3 km/h (1 Bft)
07.04.2016 15:30 9,0 C 9,6 C 65 % 1011,3 hPa 0,0 mm 3,9 km/h (1 Bft) W-NW 292 0 min 2,8 C 4,5 km/h (1 Bft)
07.04.2016 15:35 9,0 C 9,6 C 65 % 1011,3 hPa 0,0 mm 5,1 km/h (1 Bft) S 180 0 min 2,8 C 6,6 km/h (2 Bft)
07.04.2016 15:40 8,9 C 9,6 C 66 % 1011,3 hPa 0,0 mm 6,6 km/h (2 Bft) S-SW 202 0 min 2,9 C 17,3 km/h (3 Bft)
07.04.2016 15:45 8,8 C 9,2 C 65 % 1011,3 hPa 0,0 mm 8,0 km/h (2 Bft) W-SW 247 0 min 2,6 C 8,0 km/h (2 Bft)
07.04.2016 15:47 8,8 C 9,2 C 65 % 1011,3 hPa 0,0 mm 8,0 km/h (2 Bft) W-SW 247 0 min 2,6 C 8,0 km/h (2 Bft)
07.04.2016 15:50 8,8 C 9,0 C 65 % 1011,2 hPa 0,0 mm 8,9 km/h (2 Bft) SW 225 0 min 2,6 C 12,5 km/h (3 Bft)
07.04.2016 15:55 8,7 C 9,2 C 65 % 1011,2 hPa 0,0 mm 7,5 km/h (2 Bft) W-SW 247 0 min 2,5 C 4,8 km/h (1 Bft)
07.04.2016 16:00 8,7 C 9,1 C 65 % 1011,2 hPa 0,0 mm 7,2 km/h (2 Bft) W-SW 247 0 min 2,5 C 5,4 km/h (1 Bft)
07.04.2016 16:05 8,7 C 9,0 C 66 % 1011,2 hPa 0,0 mm 6,0 km/h (2 Bft) W-SW 247 0 min 2,7 C 6,9 km/h (2 Bft)
07.04.2016 16:10 8,6 C 9,0 C 65 % 1011,1 hPa 0,0 mm 6,6 km/h (2 Bft) SW 225 0 min 2,4 C 15,5 km/h (3 Bft)
07.04.2016 16:15 8,6 C 8,8 C 66 % 1011,1 hPa 0,0 mm 7,7 km/h (2 Bft) W-SW 247 0 min 2,6 C 11,3 km/h (2 Bft)
07.04.2016 16:20 8,6 C 8,9 C 66 % 1011,1 hPa 0,0 mm 6,9 km/h (2 Bft) W 270 0 min 2,6 C 5,1 km/h (1 Bft)
07.04.2016 16:25 8,5 C 8,8 C 66 % 1011,1 hPa 0,0 mm 4,8 km/h (1 Bft) S 180 0 min 2,5 C 6,3 km/h (2 Bft)
07.04.2016 16:30 8,5 C 8,8 C 66 % 1011,0 hPa 0,0 mm 4,5 km/h (1 Bft) W 270 0 min 2,5 C 6,9 km/h (2 Bft)
07.04.2016 16:35 8,5 C 8,8 C 66 % 1011,0 hPa 0,0 mm 3,6 km/h (1 Bft) S-SO 157 0 min 2,5 C 4,8 km/h (1 Bft)
07.04.2016 16:40 8,5 C 8,7 C 67 % 1011,0 hPa 0,0 mm 3,0 km/h (1 Bft) S-SW 202 0 min 2,7 C 10,1 km/h (2 Bft)
07.04.2016 16:45 8,5 C 8,7 C 66 % 1011,0 hPa 0,0 mm 6,0 km/h (2 Bft) W 270 0 min 2,5 C 6,3 km/h (2 Bft)
07.04.2016 16:50 8,5 C 8,6 C 66 % 1011,0 hPa 0,0 mm 7,7 km/h (2 Bft) W 270 0 min 2,5 C 10,1 km/h (2 Bft)
07.04.2016 16:55 8,4 C 8,4 C 66 % 1011,0 hPa 0,0 mm 7,2 km/h (2 Bft) SW 225 0 min 2,4 C 5,1 km/h (1 Bft)
07.04.2016 17:00 8,3 C 8,4 C 66 % 1011,0 hPa 0,0 mm 6,9 km/h (2 Bft) W 270 0 min 2,3 C 14,0 km/h (3 Bft)
07.04.2016 17:05 8,3 C 8,4 C 66 % 1011,0 hPa 0,0 mm 5,1 km/h (1 Bft) W-SW 247 0 min 2,3 C 4,8 km/h (1 Bft)
07.04.2016 17:10 8,3 C 8,4 C 66 % 1011,0 hPa 0,0 mm 5,7 km/h (1 Bft) W-SW 247 0 min 2,3 C 11,0 km/h (2 Bft)
07.04.2016 17:15 8,2 C 8,3 C 66 % 1011,0 hPa 0,0 mm 6,0 km/h (2 Bft) SW 225 0 min 2,2 C 6,3 km/h (2 Bft)
07.04.2016 17:20 8,1 C 8,2 C 67 % 1011,0 hPa 0,0 mm 6,0 km/h (2 Bft) W-SW 247 0 min 2,3 C 9,8 km/h (2 Bft)
07.04.2016 17:25 8,0 C 8,1 C 67 % 1011,0 hPa 0,0 mm 5,7 km/h (1 Bft) W 270 0 min 2,3 C 10,1 km/h (2 Bft)
07.04.2016 17:30 8,0 C 8,0 C 67 % 1010,9 hPa 0,0 mm 6,6 km/h (2 Bft) O-SO 112 0 min 2,3 C 5,1 km/h (1 Bft)
07.04.2016 17:35 7,9 C 7,9 C 68 % 1010,9 hPa 0,0 mm 5,4 km/h (1 Bft) W 270 0 min 2,4 C 5,1 km/h (1 Bft)
07.04.2016 17:40 7,8 C 7,8 C 68 % 1010,9 hPa 0,0 mm 5,7 km/h (1 Bft) S 180 0 min 2,3 C 11,3 km/h (2 Bft)
07.04.2016 17:45 7,5 C 7,3 C 70 % 1010,9 hPa 0,0 mm 8,6 km/h (2 Bft) NW 315 0 min 2,4 C 11,9 km/h (2 Bft)
07.04.2016 17:50 7,1 C 6,7 C 72 % 1011,1 hPa 0,0 mm 9,8 km/h (2 Bft) NW 315 0 min 2,4 C 8,0 km/h (2 Bft)
07.04.2016 17:55 6,8 C 6,3 C 75 % 1011,1 hPa 0,0 mm 9,5 km/h (2 Bft) W-SW 247 0 min 2,7 C 11,9 km/h (2 Bft)
07.04.2016 18:00 6,7 C 6,2 C 77 % 1011,1 hPa 0,0 mm 8,6 km/h (2 Bft) NW 315 0 min 3,0 C 8,9 km/h (2 Bft)
07.04.2016 18:05 6,7 C 6,4 C 77 % 1011,1 hPa 0,0 mm 6,3 km/h (2 Bft) W 270 0 min 3,0 C 5,1 km/h (1 Bft)
07.04.2016 18:10 6,7 C 6,5 C 77 % 1011,1 hPa 0,0 mm 3,3 km/h (1 Bft) NW 315 0 min 3,0 C 0,0 km/h (0 Bft)
07.04.2016 18:15 6,6 C 6,4 C 78 % 1011,1 hPa 0,0 mm 2,7 km/h (1 Bft) NW 315 0 min 3,0 C 4,8 km/h (1 Bft)
07.04.2016 18:20 6,6 C 6,4 C 78 % 1011,1 hPa 0,0 mm 3,6 km/h (1 Bft) NW 315 0 min 3,0 C 7,2 km/h (2 Bft)
07.04.2016 18:25 6,5 C 6,3 C 79 % 1011,1 hPa 0,0 mm 3,9 km/h (1 Bft) W-NW 292 0 min 3,1 C 4,5 km/h (1 Bft)
07.04.2016 18:30 6,5 C 6,3 C 79 % 1011,1 hPa 0,0 mm 4,5 km/h (1 Bft) W 270 0 min 3,1 C 8,9 km/h (2 Bft)
07.04.2016 18:35 6,4 C 6,2 C 80 % 1011,1 hPa 0,0 mm 6,0 km/h (2 Bft) W-NW 292 0 min 3,2 C 9,8 km/h (2 Bft)
07.04.2016 18:40 6,2 C 5,9 C 82 % 1011,1 hPa 0,0 mm 8,0 km/h (2 Bft) NW 315 0 min 3,4 C 12,5 km/h (3 Bft)
07.04.2016 18:45 5,8 C 5,3 C 83 % 1011,1 hPa 0,0 mm 10,7 km/h (2 Bft) W-NW 292 0 min 3,1 C 10,4 km/h (2 Bft)
07.04.2016 18:48 5,8 C 5,3 C 83 % 1011,1 hPa 0,0 mm 10,7 km/h (2 Bft) W-NW 292 0 min 3,1 C 10,4 km/h (2 Bft)
07.04.2016 18:50 5,7 C 5,2 C 84 % 1011,5 hPa 0,7 mm 11,0 km/h (2 Bft) NW 315 0 min 3,2 C 14,6 km/h (3 Bft)
07.04.2016 18:55 5,6 C 5,1 C 84 % 1011,5 hPa 0,0 mm 9,2 km/h (2 Bft) NW 315 0 min 3,1 C 10,7 km/h (2 Bft)
07.04.2016 19:00 5,6 C 5,2 C 84 % 1011,5 hPa 0,0 mm 8,0 km/h (2 Bft) W-NW 292 0 min 3,1 C 14,3 km/h (3 Bft)
07.04.2016 19:05 5,5 C 5,2 C 84 % 1011,5 hPa 0,0 mm 6,9 km/h (2 Bft) W-NW 292 0 min 3,0 C 7,5 km/h (2 Bft)
07.04.2016 19:10 5,5 C 5,2 C 84 % 1011,5 hPa 0,0 mm 6,6 km/h (2 Bft) W-NW 292 0 min 3,0 C 9,5 km/h (2 Bft)
07.04.2016 19:15 5,4 C 5,3 C 84 % 1011,5 hPa 0,0 mm 5,1 km/h (1 Bft) NW 315 0 min 2,9 C 10,1 km/h (2 Bft)
07.04.2016 19:20 5,4 C 5,2 C 85 % 1011,5 hPa 0,0 mm 5,1 km/h (1 Bft) W 270 0 min 3,1 C 4,2 km/h (1 Bft)
07.04.2016 19:25 5,3 C 5,1 C 85 % 1011,5 hPa 0,0 mm 5,7 km/h (1 Bft) NW 315 0 min 3,0 C 3,3 km/h (1 Bft)
07.04.2016 19:30 5,2 C 5,1 C 80 % 1011,6 hPa 0,7 mm 5,1 km/h (1 Bft) N-NW 337 0 min 2,0 C 0,0 km/h (0 Bft)
07.04.2016 19:35 5,2 C 5,1 C 85 % 1011,6 hPa 0,0 mm 5,1 km/h (1 Bft) NW 315 0 min 2,9 C 8,3 km/h (2 Bft)
07.04.2016 19:40 5,2 C 5,0 C 85 % 1011,6 hPa 0,0 mm 4,5 km/h (1 Bft) W 270 0 min 2,9 C 4,2 km/h (1 Bft)
07.04.2016 19:45 5,1 C 5,0 C 81 % 1011,6 hPa 0,0 mm 3,9 km/h (1 Bft) W-SW 247 0 min 2,1 C 0,0 km/h (0 Bft)
07.04.2016 19:50 5,1 C 5,0 C 81 % 1011,6 hPa 0,0 mm 3,3 km/h (1 Bft) W 270 0 min 2,1 C 3,9 km/h (1 Bft)
07.04.2016 19:55 5,1 C 5,0 C 81 % 1011,6 hPa 0,0 mm 1,5 km/h (1 Bft) NW 315 0 min 2,1 C 3,6 km/h (1 Bft)
07.04.2016 20:00 5,1 C 5,1 C 81 % 1011,6 hPa 0,0 mm 0,6 km/h (0 Bft) NW 315 0 min 2,1 C 0,0 km/h (0 Bft)
07.04.2016 20:05 5,1 C 5,1 C 81 % 1011,6 hPa 0,0 mm 1,2 km/h (1 Bft) NW 315 0 min 2,1 C 3,0 km/h (1 Bft)
07.04.2016 20:10 5,1 C 5,1 C 82 % 1011,6 hPa 0,0 mm 1,8 km/h (1 Bft) NW 315 0 min 2,3 C 8,3 km/h (2 Bft)
07.04.2016 20:15 5,0 C 4,9 C 82 % 1011,6 hPa 0,0 mm 6,0 km/h (2 Bft) NW 315 0 min 2,2 C 7,7 km/h (2 Bft)
07.04.2016 20:20 5,0 C 4,8 C 86 % 1011,6 hPa 0,0 mm 6,6 km/h (2 Bft) N-NW 337 0 min 2,9 C 8,9 km/h (2 Bft)
07.04.2016 20:25 4,9 C 4,8 C 82 % 1011,6 hPa 0,0 mm 3,6 km/h (1 Bft) NO 45 0 min 2,1 C 0,0 km/h (0 Bft)
07.04.2016 20:30 4,8 C 4,7 C 82 % 1011,9 hPa 0,0 mm 4,5 km/h (1 Bft) NW 315 0 min 2,0 C 6,3 km/h (2 Bft)
07.04.2016 20:35 4,8 C 4,6 C 86 % 1011,9 hPa 0,0 mm 3,9 km/h (1 Bft) NW 315 0 min 2,7 C 7,5 km/h (2 Bft)
07.04.2016 20:40 4,7 C 4,5 C 86 % 1011,9 hPa 0,7 mm 4,5 km/h (1 Bft) W 270 0 min 2,6 C 8,3 km/h (2 Bft)
07.04.2016 20:45 4,6 C 4,3 C 87 % 1011,9 hPa 0,0 mm 6,9 km/h (2 Bft) NW 315 0 min 2,6 C 7,5 km/h (2 Bft)
07.04.2016 20:50 4,6 C 4,3 C 87 % 1012,2 hPa 0,0 mm 6,3 km/h (2 Bft) NW 315 0 min 2,6 C 3,9 km/h (1 Bft)
07.04.2016 20:55 4,6 C 4,4 C 87 % 1012,2 hPa 0,0 mm 4,5 km/h (1 Bft) W 270 0 min 2,6 C 4,5 km/h (1 Bft)
07.04.2016 21:00 4,6 C 4,4 C 87 % 1012,2 hPa 0,0 mm 4,5 km/h (1 Bft) W-SW 247 0 min 2,6 C 3,6 km/h (1 Bft)
07.04.2016 21:05 4,5 C 4,3 C 87 % 1012,2 hPa 0,0 mm 4,8 km/h (1 Bft) W 270 0 min 2,5 C 5,4 km/h (1 Bft)
07.04.2016 21:10 4,5 C 4,3 C 87 % 1012,5 hPa 0,0 mm 3,6 km/h (1 Bft) NW 315 0 min 2,5 C 3,6 km/h (1 Bft)
07.04.2016 21:15 4,5 C 4,3 C 87 % 1012,5 hPa 0,0 mm 1,5 km/h (1 Bft) W-SW 247 0 min 2,5 C 0,0 km/h (0 Bft)
07.04.2016 21:20 4,5 C 4,3 C 87 % 1012,5 hPa 0,0 mm 0,9 km/h (0 Bft) W-NW 292 0 min 2,5 C 0,0 km/h (0 Bft)
07.04.2016 21:25 4,4 C 4,2 C 87 % 1012,5 hPa 0,0 mm 0,6 km/h (0 Bft) O-SO 112 0 min 2,4 C 0,0 km/h (0 Bft)
07.04.2016 21:30 4,4 C 4,2 C 87 % 1012,6 hPa 0,0 mm 0,6 km/h (0 Bft) W 270 0 min 2,4 C 0,0 km/h (0 Bft)
07.04.2016 21:35 4,4 C 4,2 C 87 % 1012,6 hPa 0,0 mm 0,0 km/h (0 Bft) W-SW 247 0 min 2,4 C 0,0 km/h (0 Bft)
07.04.2016 21:40 4,4 C 4,2 C 86 % 1012,6 hPa 0,0 mm 0,0 km/h (0 Bft) W-SW 247 0 min 2,3 C 0,0 km/h (0 Bft)
07.04.2016 21:45 4,4 C 4,2 C 86 % 1012,6 hPa 0,7 mm 0,0 km/h (0 Bft) W-SW 247 0 min 2,3 C 0,0 km/h (0 Bft)
07.04.2016 21:48 4,3 C 4,2 C 83 % 1012,6 hPa 0,0 mm 0,0 km/h (0 Bft) SW 225 0 min 1,7 C 0,0 km/h (0 Bft)
07.04.2016 21:49 4,3 C 4,2 C 83 % 1012,6 hPa 0,0 mm 0,0 km/h (0 Bft) SW 225 0 min 1,7 C 0,0 km/h (0 Bft)
07.04.2016 21:50 4,3 C 4,2 C 83 % 1012,6 hPa 0,0 mm 0,0 km/h (0 Bft) SW 225 0 min 1,7 C 0,0 km/h (0 Bft)
07.04.2016 21:55 4,3 C 4,2 C 83 % 1012,6 hPa 0,0 mm 0,0 km/h (0 Bft) W 270 0 min 1,7 C 0,0 km/h (0 Bft)
07.04.2016 22:00 4,4 C 4,2 C 87 % 1012,6 hPa 0,0 mm 0,0 km/h (0 Bft) W-SW 247 0 min 2,4 C 0,0 km/h (0 Bft)
07.04.2016 22:05 4,4 C 4,2 C 87 % 1012,6 hPa 0,0 mm 0,0 km/h (0 Bft) W 270 0 min 2,4 C 3,6 km/h (1 Bft)
07.04.2016 22:10 4,4 C 4,2 C 87 % 1012,6 hPa 0,7 mm 0,6 km/h (0 Bft) NW 315 0 min 2,4 C 3,6 km/h (1 Bft)
07.04.2016 22:15 4,3 C 4,2 C 87 % 1012,6 hPa 0,0 mm 0,9 km/h (0 Bft) W-NW 292 0 min 2,3 C 3,3 km/h (1 Bft)
07.04.2016 22:20 4,3 C 4,2 C 87 % 1012,6 hPa 0,0 mm 2,1 km/h (1 Bft) NW 315 0 min 2,3 C 6,9 km/h (2 Bft)
07.04.2016 22:25 4,4 C 4,2 C 87 % 1012,6 hPa 0,0 mm 4,5 km/h (1 Bft) N-NO 22 0 min 2,4 C 6,6 km/h (2 Bft)
07.04.2016 22:30 4,2 C 4,0 C 87 % 1012,8 hPa 0,7 mm 5,7 km/h (1 Bft) N-NO 22 0 min 2,2 C 8,3 km/h (2 Bft)
07.04.2016 22:35 4,1 C 3,8 C 87 % 1012,8 hPa 0,0 mm 6,6 km/h (2 Bft) NW 315 0 min 2,1 C 5,4 km/h (1 Bft)
07.04.2016 22:40 4,0 C 3,9 C 87 % 1012,8 hPa 0,0 mm 5,4 km/h (1 Bft) W-NW 292 0 min 2,0 C 7,5 km/h (2 Bft)
07.04.2016 22:45 4,0 C 3,8 C 87 % 1012,8 hPa 0,0 mm 3,3 km/h (1 Bft) W-NW 292 0 min 2,0 C 0,0 km/h (0 Bft)
07.04.2016 22:50 3,9 C 3,7 C 88 % 1012,9 hPa 0,0 mm 4,8 km/h (1 Bft) N-NW 337 0 min 2,1 C 10,7 km/h (2 Bft)
07.04.2016 22:55 3,8 C 3,6 C 88 % 1012,9 hPa 0,7 mm 5,4 km/h (1 Bft) W-NW 292 0 min 2,0 C 5,4 km/h (1 Bft)
07.04.2016 23:00 3,8 C 3,6 C 88 % 1012,9 hPa 0,0 mm 4,5 km/h (1 Bft) W-SW 247 0 min 2,0 C 8,3 km/h (2 Bft)
07.04.2016 23:05 3,6 C 3,4 C 87 % 1012,9 hPa 0,0 mm 4,8 km/h (1 Bft) W-SW 247 0 min 1,6 C 3,0 km/h (1 Bft)
07.04.2016 23:10 3,6 C 3,4 C 87 % 1013,1 hPa 0,7 mm 4,8 km/h (1 Bft) W 270 0 min 1,6 C 6,3 km/h (2 Bft)
07.04.2016 23:15 3,3 C 3,1 C 87 % 1013,1 hPa 0,0 mm 5,7 km/h (1 Bft) O 90 0 min 1,3 C 7,5 km/h (2 Bft)
07.04.2016 23:20 3,0 C 2,6 C 87 % 1013,1 hPa 0,7 mm 7,2 km/h (2 Bft) NW 315 0 min 1,1 C 0,0 km/h (0 Bft)
07.04.2016 23:25 3,0 C 2,6 C 86 % 1013,1 hPa 0,0 mm 5,1 km/h (1 Bft) NW 315 0 min 0,9 C 0,0 km/h (0 Bft)
07.04.2016 23:30 2,9 C 2,6 C 87 % 1013,1 hPa 0,0 mm 3,9 km/h (1 Bft) W 270 0 min 1,0 C 5,7 km/h (1 Bft)
07.04.2016 23:35 2,9 C 2,6 C 87 % 1013,1 hPa 0,0 mm 3,6 km/h (1 Bft) W-SW 247 0 min 1,0 C 3,9 km/h (1 Bft)
07.04.2016 23:40 2,8 C 2,5 C 87 % 1013,1 hPa 0,0 mm 3,6 km/h (1 Bft) S-SW 202 0 min 0,9 C 8,3 km/h (2 Bft)
07.04.2016 23:45 2,7 C 2,4 C 87 % 1013,1 hPa 0,0 mm 3,6 km/h (1 Bft) SW 225 0 min 0,8 C 3,3 km/h (1 Bft)
07.04.2016 23:50 2,7 C 2,4 C 87 % 1012,9 hPa 0,0 mm 3,6 km/h (1 Bft) W-SW 247 0 min 0,8 C 5,7 km/h (1 Bft)
07.04.2016 23:55 2,6 C 2,3 C 87 % 1012,9 hPa 0,0 mm 3,9 km/h (1 Bft) S 180 0 min 0,7 C 3,3 km/h (1 Bft)
_ Min-Zeit 23:55 23:55 16:10 06:25 - 22:05 - - - 23:55 23:25
Minimum _ 2,6 C 2,3 C 65 % 1010,7 hPa - 0,0 km/h (0 Bft) - - - 0,7 C 0,0 km/h (0 Bft)
_ Max-Zeit 13:20 13:20 02:50 23:45 23:20 14:30 - - 23:55 03:10 14:25
Maximum _ 9,7 C 11,1 C 90 % 1013,1 hPa 0,7 mm 11,6 km/h
NW (2 Bft)
- - 0 min 5,4 C 23,8 km/h
W-NW (4 Bft)
Durchschnitt _ 6,7 C 6,9 C 77 % 1011,8 hPa #6,2 mm 4,1 km/h (1 Bft) W - #0 min. 3,0 C 5,4 km/h (1 Bft)